Archiv

Tageswerte

Alle gespeicherten Messwerte deiner Wetterstation.

Ausgewählter Tag19.01.2024
← Vortag Nächster Tag → Heute
Messpunkte288
Max Temperatur-1,4 °C
Min Temperatur-4,9 °C
Ø Temperatur-3,4 °C
Regen0,0 mm
Stärkste Böe24,8 km/h

Messwerte vom 19.01.2024

288 gespeicherte Messwerte

Diagramm anzeigen
ZeitTemperaturFeuchteDruckWindBöeRichtungRegenUVHelligkeit
23:59-4,2 °C85 %1.013,9 hPa7,8 km/h24,8 km/h236°0,0 mm
23:54-4,2 °C85 %1.013,9 hPa6,7 km/h12,2 km/h232°0,0 mm
23:49-4,3 °C86 %1.013,9 hPa6,2 km/h13,7 km/h245°0,0 mm
23:44-4,2 °C86 %1.013,9 hPa4,4 km/h9,7 km/h247°0,0 mm
23:39-4,2 °C86 %1.013,9 hPa4,5 km/h9,3 km/h241°0,0 mm
23:34-4,2 °C85 %1.013,9 hPa6,1 km/h15,8 km/h232°0,0 mm
23:29-4,2 °C86 %1.013,9 hPa4,9 km/h11,1 km/h235°0,0 mm
23:24-4,2 °C86 %1.013,9 hPa5,4 km/h16,4 km/h240°0,0 mm
23:19-4,2 °C86 %1.013,9 hPa4,2 km/h10,3 km/h205°0,0 mm
23:14-4,1 °C86 %1.013,9 hPa4,4 km/h8,9 km/h220°0,0 mm
23:09-4,1 °C86 %1.013,9 hPa6,2 km/h11,4 km/h254°0,0 mm
23:04-4,2 °C86 %1.013,9 hPa6,9 km/h15,8 km/h240°0,0 mm
22:59-4,2 °C86 %1.013,9 hPa7,3 km/h15,0 km/h243°0,0 mm
22:54-4,2 °C86 %1.013,9 hPa6,1 km/h11,4 km/h254°0,0 mm
22:49-4,2 °C86 %1.013,9 hPa4,9 km/h11,1 km/h245°0,0 mm
22:44-4,2 °C86 %1.013,9 hPa5,5 km/h9,7 km/h237°0,0 mm
22:39-4,2 °C86 %1.013,9 hPa5,5 km/h10,3 km/h219°0,0 mm
22:34-4,2 °C86 %1.013,9 hPa5,5 km/h11,4 km/h251°0,0 mm
22:29-4,2 °C86 %1.013,9 hPa4,4 km/h9,3 km/h229°0,0 mm
22:24-4,1 °C86 %1.013,9 hPa4,9 km/h11,4 km/h233°0,0 mm
22:19-4,1 °C86 %1.013,9 hPa4,5 km/h8,9 km/h241°0,0 mm
22:14-4,0 °C86 %1.013,9 hPa3,1 km/h10,3 km/h232°0,0 mm
22:09-3,9 °C86 %1.013,9 hPa3,8 km/h8,5 km/h231°0,0 mm
22:04-3,8 °C85 %1.013,9 hPa4,8 km/h11,4 km/h236°0,0 mm
21:59-3,8 °C85 %1.013,9 hPa6,3 km/h12,9 km/h238°0,0 mm
21:54-3,9 °C85 %1.013,9 hPa7,9 km/h14,3 km/h254°0,0 mm
21:49-3,9 °C85 %1.013,9 hPa5,6 km/h12,2 km/h242°0,0 mm
21:44-3,9 °C86 %1.013,9 hPa6,5 km/h11,1 km/h250°0,0 mm
21:39-3,9 °C86 %1.013,9 hPa6,8 km/h11,1 km/h260°0,0 mm
21:34-3,8 °C86 %1.013,9 hPa3,4 km/h11,4 km/h254°0,0 mm
21:29-3,8 °C86 %1.012,9 hPa5,2 km/h10,8 km/h253°0,0 mm
21:24-3,8 °C86 %1.012,9 hPa4,8 km/h9,7 km/h242°0,0 mm
21:19-3,8 °C85 %1.012,9 hPa6,4 km/h12,9 km/h244°0,0 mm
21:14-3,8 °C86 %1.012,9 hPa6,0 km/h15,8 km/h230°0,0 mm
21:09-3,8 °C86 %1.012,9 hPa5,4 km/h11,4 km/h259°0,0 mm
21:04-3,7 °C86 %1.012,9 hPa4,9 km/h10,8 km/h215°0,0 mm
20:59-3,7 °C86 %1.012,9 hPa4,1 km/h8,5 km/h237°0,0 mm
20:54-3,7 °C86 %1.012,9 hPa6,9 km/h12,2 km/h234°0,0 mm
20:49-3,6 °C86 %1.012,9 hPa4,8 km/h11,1 km/h230°0,0 mm
20:44-3,6 °C86 %1.012,9 hPa5,2 km/h10,8 km/h238°0,0 mm
20:39-3,6 °C86 %1.012,9 hPa5,1 km/h12,6 km/h218°0,0 mm
20:34-3,6 °C86 %1.012,9 hPa4,0 km/h8,5 km/h251°0,0 mm
20:29-3,5 °C86 %1.012,9 hPa4,2 km/h11,4 km/h189°0,0 mm
20:24-3,5 °C86 %1.012,9 hPa3,2 km/h7,4 km/h267°0,0 mm
20:19-3,5 °C86 %1.012,9 hPa3,7 km/h11,4 km/h229°0,0 mm
20:14-3,4 °C86 %1.012,9 hPa6,2 km/h8,9 km/h237°0,0 mm
20:09-3,4 °C86 %1.012,9 hPa3,8 km/h10,3 km/h293°0,0 mm
20:04-3,4 °C86 %1.012,9 hPa5,0 km/h13,7 km/h237°0,0 mm
19:59-3,4 °C86 %1.012,9 hPa4,5 km/h10,8 km/h236°0,0 mm
19:54-3,4 °C87 %1.012,9 hPa3,5 km/h8,5 km/h219°0,0 mm
19:49-3,4 °C87 %1.012,9 hPa3,7 km/h10,8 km/h273°0,0 mm
19:44-3,4 °C87 %1.012,9 hPa4,5 km/h9,7 km/h277°0,0 mm
19:39-3,3 °C87 %1.012,9 hPa3,2 km/h8,2 km/h254°0,0 mm
19:34-3,3 °C87 %1.012,9 hPa3,4 km/h10,3 km/h267°0,0 mm
19:29-3,2 °C87 %1.012,9 hPa3,4 km/h10,8 km/h275°0,0 mm
19:24-3,2 °C87 %1.012,9 hPa4,4 km/h8,5 km/h276°0,0 mm
19:19-3,2 °C87 %1.012,9 hPa4,4 km/h8,2 km/h291°0,0 mm
19:14-3,2 °C87 %1.011,9 hPa3,6 km/h8,5 km/h226°0,0 mm
19:09-3,1 °C87 %1.011,9 hPa3,0 km/h7,4 km/h283°0,0 mm
19:04-3,1 °C87 %1.011,9 hPa4,1 km/h8,9 km/h266°0,0 mm
18:59-3,1 °C87 %1.011,9 hPa4,0 km/h8,5 km/h259°0,0 mm
18:54-3,1 °C87 %1.011,9 hPa3,9 km/h7,4 km/h265°0,0 mm
18:49-3,1 °C88 %1.011,9 hPa3,0 km/h7,9 km/h290°0,0 mm
18:44-3,1 °C88 %1.011,9 hPa2,9 km/h7,4 km/h278°0,0 mm
18:39-3,1 °C87 %1.011,9 hPa3,1 km/h8,2 km/h271°0,0 mm
18:34-3,0 °C87 %1.011,9 hPa4,8 km/h8,9 km/h241°0,0 mm
18:29-3,0 °C87 %1.011,9 hPa2,7 km/h7,9 km/h239°0,0 mm
18:24-3,0 °C87 %1.011,9 hPa3,7 km/h9,3 km/h269°0,0 mm
18:19-2,9 °C87 %1.011,9 hPa2,7 km/h10,3 km/h278°0,0 mm
18:14-2,9 °C87 %1.011,9 hPa1,3 km/h6,4 km/h221°0,0 mm
18:09-2,7 °C87 %1.011,9 hPa2,8 km/h8,9 km/h250°0,0 mm
18:04-2,7 °C87 %1.011,9 hPa3,6 km/h8,5 km/h264°0,0 mm
17:59-2,7 °C87 %1.011,9 hPa2,3 km/h8,9 km/h12°0,0 mm
17:54-2,7 °C86 %1.011,9 hPa3,6 km/h8,5 km/h254°0,0 mm
17:49-2,6 °C86 %1.011,9 hPa4,7 km/h8,5 km/h274°0,0 mm
17:44-2,6 °C86 %1.010,8 hPa3,0 km/h7,4 km/h281°0,0 mm
17:39-2,7 °C86 %1.010,8 hPa4,4 km/h8,9 km/h269°0,0 mm
17:34-2,7 °C87 %1.010,8 hPa4,4 km/h9,7 km/h269°0,0 mm
17:29-2,7 °C87 %1.010,8 hPa3,6 km/h11,1 km/h229°0,0 mm
17:24-2,7 °C87 %1.010,8 hPa4,2 km/h8,9 km/h243°0,0 mm
17:19-2,7 °C87 %1.010,8 hPa3,4 km/h8,5 km/h247°0,0 mm
17:14-2,7 °C87 %1.010,8 hPa3,8 km/h8,5 km/h259°0,0 mm
17:09-2,7 °C87 %1.010,8 hPa2,0 km/h6,4 km/h252°0,0 mm
17:04-2,6 °C87 %1.010,8 hPa3,5 km/h9,3 km/h249°0,0 mm
16:59-2,6 °C87 %1.010,8 hPa3,5 km/h10,3 km/h263°0,0 mm
16:54-2,6 °C87 %1.010,8 hPa3,5 km/h9,3 km/h275°0,0 mm
16:49-2,5 °C87 %1.010,8 hPa3,3 km/h7,1 km/h258°0,0 mm
16:44-2,5 °C87 %1.010,8 hPa3,5 km/h8,5 km/h271°0,0 mm
16:39-2,4 °C87 %1.010,8 hPa2,7 km/h7,9 km/h245°0,0 mm
16:34-2,4 °C87 %1.010,8 hPa5,1 km/h10,8 km/h252°0,0 mm
16:29-2,3 °C87 %1.010,8 hPa4,4 km/h8,9 km/h286°0,0 mm
16:24-2,3 °C87 %1.010,8 hPa5,6 km/h14,3 km/h289°0,0 mm
16:19-2,2 °C87 %1.010,8 hPa3,7 km/h8,5 km/h275°0,0 mm
16:14-2,1 °C87 %1.010,8 hPa3,4 km/h8,5 km/h259°0,0 mm
16:09-2,1 °C86 %1.010,8 hPa4,2 km/h8,5 km/h264°0,0 mm
16:04-2,1 °C86 %1.010,8 hPa5,1 km/h12,2 km/h235°0,0 mm
15:59-2,1 °C86 %1.009,8 hPa4,9 km/h11,4 km/h288°0,0 mm
15:54-2,0 °C86 %1.009,8 hPa5,6 km/h10,8 km/h264°0,0 mm
15:49-2,0 °C87 %1.009,8 hPa6,0 km/h9,7 km/h283°0,0 mm
15:44-2,0 °C87 %1.009,8 hPa4,5 km/h9,3 km/h260°0,0 mm
15:39-1,9 °C87 %1.009,8 hPa2,3 km/h12,2 km/h270°0,0 mm
15:34-1,9 °C87 %1.009,8 hPa3,9 km/h8,9 km/h272°0,0 mm
15:29-1,9 °C87 %1.009,8 hPa4,1 km/h8,9 km/h268°0,0 mm
15:24-1,9 °C87 %1.009,8 hPa4,3 km/h8,9 km/h310°0,0 mm
15:19-1,8 °C87 %1.009,8 hPa3,6 km/h8,9 km/h248°0,0 mm
15:14-1,8 °C87 %1.009,8 hPa3,6 km/h7,9 km/h313°0,0 mm
15:09-1,8 °C87 %1.009,8 hPa4,0 km/h9,7 km/h292°0,0 mm
15:04-1,8 °C87 %1.009,8 hPa5,2 km/h9,7 km/h271°0,0 mm
14:59-1,8 °C86 %1.009,8 hPa5,8 km/h10,3 km/h263°0,0 mm
14:54-1,8 °C86 %1.009,8 hPa6,1 km/h10,8 km/h317°0,0 mm
14:49-1,7 °C86 %1.009,8 hPa5,0 km/h10,3 km/h252°0,0 mm
14:44-1,8 °C86 %1.008,8 hPa4,0 km/h8,9 km/h243°0,0 mm
14:39-1,8 °C85 %1.008,8 hPa5,1 km/h9,3 km/h271°0,0 mm
14:34-1,8 °C86 %1.008,8 hPa4,3 km/h7,4 km/h298°0,0 mm
14:29-1,7 °C86 %1.008,8 hPa4,2 km/h10,8 km/h247°0,0 mm
14:24-1,6 °C85 %1.008,8 hPa5,8 km/h14,3 km/h281°0,0 mm
14:19-1,5 °C85 %1.008,8 hPa5,5 km/h9,3 km/h282°0,0 mm
14:14-1,4 °C85 %1.008,8 hPa5,9 km/h11,1 km/h251°0,0 mm
14:09-1,4 °C84 %1.008,8 hPa5,5 km/h12,6 km/h286°0,0 mm
14:04-1,4 °C84 %1.008,8 hPa5,2 km/h12,2 km/h276°0,0 mm
13:59-1,5 °C84 %1.008,8 hPa5,4 km/h9,3 km/h255°0,0 mm
13:54-1,6 °C84 %1.008,8 hPa4,6 km/h13,7 km/h245°0,0 mm
13:49-1,7 °C84 %1.008,8 hPa4,9 km/h13,7 km/h253°0,0 mm
13:44-1,8 °C85 %1.008,8 hPa4,9 km/h8,9 km/h240°0,0 mm
13:39-1,9 °C85 %1.008,8 hPa4,7 km/h10,8 km/h270°0,0 mm
13:34-2,0 °C86 %1.008,8 hPa4,7 km/h10,0 km/h271°0,0 mm
13:29-2,0 °C85 %1.008,8 hPa4,3 km/h9,3 km/h283°0,0 mm
13:24-2,1 °C85 %1.008,8 hPa5,1 km/h11,1 km/h255°0,0 mm
13:19-2,0 °C85 %1.008,8 hPa6,4 km/h12,2 km/h245°0,0 mm
13:14-2,0 °C85 %1.007,8 hPa5,8 km/h11,4 km/h279°0,0 mm
13:09-1,9 °C85 %1.007,8 hPa4,7 km/h10,3 km/h291°0,0 mm
13:04-1,8 °C84 %1.007,8 hPa7,2 km/h11,4 km/h268°0,0 mm
12:59-1,7 °C84 %1.007,8 hPa5,3 km/h11,4 km/h303°0,0 mm
12:54-1,7 °C84 %1.007,8 hPa6,8 km/h11,4 km/h276°0,0 mm
12:49-1,6 °C84 %1.007,8 hPa5,1 km/h10,3 km/h253°0,0 mm
12:44-1,6 °C84 %1.007,8 hPa4,0 km/h9,7 km/h261°0,0 mm
12:39-1,6 °C83 %1.007,8 hPa4,0 km/h9,3 km/h293°0,0 mm
12:34-1,6 °C83 %1.007,8 hPa5,6 km/h10,8 km/h300°0,0 mm
12:29-1,7 °C83 %1.007,8 hPa5,4 km/h11,1 km/h267°0,0 mm
12:24-1,7 °C82 %1.007,8 hPa4,4 km/h10,3 km/h301°0,0 mm
12:19-1,7 °C82 %1.007,8 hPa4,9 km/h10,3 km/h283°0,0 mm
12:14-1,7 °C82 %1.007,8 hPa5,4 km/h10,8 km/h263°0,0 mm
12:09-1,7 °C82 %1.007,8 hPa4,8 km/h9,3 km/h277°0,0 mm
12:04-1,8 °C82 %1.007,8 hPa5,6 km/h10,3 km/h282°0,0 mm
11:59-1,8 °C82 %1.007,8 hPa4,9 km/h8,5 km/h287°0,0 mm
11:54-1,9 °C82 %1.007,8 hPa4,0 km/h9,3 km/h321°0,0 mm
11:49-2,0 °C82 %1.007,8 hPa5,1 km/h10,8 km/h245°0,0 mm
11:44-2,0 °C82 %1.007,8 hPa4,1 km/h11,1 km/h266°0,0 mm
11:39-2,1 °C82 %1.007,8 hPa4,9 km/h9,3 km/h286°0,0 mm
11:34-2,2 °C82 %1.007,8 hPa4,7 km/h9,3 km/h251°0,0 mm
11:29-2,2 °C83 %1.006,8 hPa4,9 km/h10,3 km/h314°0,0 mm
11:24-2,2 °C83 %1.006,8 hPa4,5 km/h8,9 km/h243°0,0 mm
11:19-2,2 °C83 %1.006,8 hPa4,7 km/h10,8 km/h268°0,0 mm
11:14-2,3 °C83 %1.006,8 hPa3,6 km/h6,8 km/h263°0,0 mm
11:09-2,3 °C83 %1.006,8 hPa4,6 km/h8,5 km/h277°0,0 mm
11:04-2,4 °C83 %1.006,8 hPa4,8 km/h7,9 km/h258°0,0 mm
10:59-2,4 °C83 %1.006,8 hPa4,5 km/h8,5 km/h263°0,0 mm
10:54-2,5 °C83 %1.006,8 hPa4,4 km/h10,0 km/h268°0,0 mm
10:49-2,6 °C83 %1.006,8 hPa4,6 km/h10,8 km/h293°0,0 mm
10:44-2,7 °C84 %1.006,8 hPa3,8 km/h10,8 km/h250°0,0 mm
10:39-2,7 °C84 %1.006,8 hPa3,7 km/h8,5 km/h267°0,0 mm
10:34-2,8 °C84 %1.006,8 hPa2,7 km/h8,5 km/h214°0,0 mm
10:29-3,0 °C84 %1.006,8 hPa3,2 km/h8,5 km/h234°0,0 mm
10:24-3,0 °C84 %1.006,8 hPa6,1 km/h14,3 km/h231°0,0 mm
10:19-3,1 °C84 %1.006,8 hPa4,3 km/h9,3 km/h245°0,0 mm
10:14-3,2 °C85 %1.006,8 hPa5,1 km/h15,8 km/h243°0,0 mm
10:09-3,3 °C85 %1.006,8 hPa4,3 km/h9,3 km/h253°0,0 mm
10:04-3,3 °C85 %1.006,8 hPa4,0 km/h9,3 km/h247°0,0 mm
09:59-3,4 °C85 %1.006,1 hPa3,8 km/h8,9 km/h240°0,0 mm
09:54-3,4 °C86 %1.006,1 hPa3,2 km/h8,9 km/h247°0,0 mm
09:49-3,5 °C86 %1.006,1 hPa4,0 km/h9,3 km/h223°0,0 mm
09:44-3,6 °C86 %1.006,1 hPa5,5 km/h9,7 km/h241°0,0 mm
09:39-3,8 °C87 %1.006,1 hPa4,2 km/h9,7 km/h233°0,0 mm
09:34-3,9 °C87 %1.006,1 hPa3,7 km/h8,5 km/h239°0,0 mm
09:29-4,0 °C88 %1.006,1 hPa2,9 km/h7,4 km/h238°0,0 mm
09:24-4,1 °C88 %1.006,1 hPa4,3 km/h9,7 km/h238°0,0 mm
09:19-4,2 °C88 %1.006,1 hPa3,7 km/h7,9 km/h230°0,0 mm
09:14-4,3 °C88 %1.006,1 hPa4,5 km/h9,7 km/h221°0,0 mm
09:09-4,4 °C88 %1.006,1 hPa3,3 km/h6,4 km/h249°0,0 mm
09:04-4,4 °C88 %1.006,1 hPa2,7 km/h6,8 km/h229°0,0 mm
08:59-4,5 °C89 %1.006,1 hPa4,5 km/h7,9 km/h239°0,0 mm
08:54-4,5 °C89 %1.006,1 hPa3,8 km/h7,9 km/h252°0,0 mm
08:49-4,5 °C89 %1.006,1 hPa4,2 km/h9,7 km/h226°0,0 mm
08:44-4,6 °C89 %1.006,1 hPa4,3 km/h8,5 km/h233°0,0 mm
08:39-4,7 °C89 %1.006,1 hPa3,4 km/h7,4 km/h237°0,0 mm
08:34-4,7 °C89 %1.006,1 hPa5,5 km/h11,4 km/h236°0,0 mm
08:29-4,8 °C90 %1.006,1 hPa5,0 km/h15,8 km/h245°0,0 mm
08:24-4,9 °C90 %1.006,1 hPa4,1 km/h8,5 km/h231°0,0 mm
08:19-4,9 °C91 %1.006,1 hPa3,3 km/h7,4 km/h257°0,0 mm
08:14-4,9 °C91 %1.006,1 hPa2,8 km/h4,2 km/h246°0,0 mm
08:09-4,9 °C91 %1.006,1 hPa2,2 km/h3,5 km/h255°0,0 mm
08:04-4,8 °C91 %1.006,1 hPa1,7 km/h6,4 km/h263°0,0 mm
07:59-4,9 °C91 %1.005,1 hPa3,4 km/h7,9 km/h251°0,0 mm
07:54-4,9 °C91 %1.005,1 hPa3,4 km/h7,9 km/h243°0,0 mm
07:49-4,9 °C91 %1.005,1 hPa2,9 km/h8,5 km/h241°0,0 mm
07:44-4,9 °C91 %1.005,1 hPa2,5 km/h8,5 km/h242°0,0 mm
07:39-4,8 °C91 %1.005,1 hPa3,6 km/h8,5 km/h242°0,0 mm
07:34-4,8 °C91 %1.005,1 hPa1,7 km/h3,9 km/h239°0,0 mm
07:29-4,9 °C91 %1.005,1 hPa3,1 km/h7,9 km/h252°0,0 mm
07:24-4,9 °C91 %1.005,1 hPa3,3 km/h7,9 km/h230°0,0 mm
07:19-4,9 °C92 %1.005,1 hPa3,1 km/h6,4 km/h241°0,0 mm
07:14-4,9 °C91 %1.005,1 hPa2,6 km/h5,3 km/h234°0,0 mm
07:09-4,9 °C92 %1.005,1 hPa3,2 km/h5,6 km/h249°0,0 mm
07:04-4,9 °C92 %1.005,1 hPa2,3 km/h5,3 km/h242°0,0 mm
06:59-4,8 °C92 %1.005,1 hPa1,5 km/h2,7 km/h224°0,0 mm
06:54-4,7 °C92 %1.005,1 hPa1,9 km/h7,9 km/h282°0,0 mm
06:49-4,6 °C92 %1.005,1 hPa2,3 km/h6,4 km/h221°0,0 mm
06:44-4,6 °C92 %1.004,1 hPa2,7 km/h7,9 km/h260°0,0 mm
06:39-4,6 °C92 %1.004,1 hPa2,6 km/h6,4 km/h253°0,0 mm
06:34-4,6 °C92 %1.004,1 hPa1,6 km/h6,8 km/h268°0,0 mm
06:29-4,5 °C92 %1.004,1 hPa2,4 km/h8,9 km/h251°0,0 mm
06:24-4,5 °C92 %1.004,1 hPa1,9 km/h5,3 km/h236°0,0 mm
06:19-4,5 °C92 %1.004,1 hPa3,2 km/h9,3 km/h247°0,0 mm
06:14-4,5 °C92 %1.004,1 hPa2,7 km/h7,4 km/h253°0,0 mm
06:09-4,5 °C92 %1.004,1 hPa2,7 km/h7,9 km/h256°0,0 mm
06:04-4,6 °C92 %1.004,1 hPa2,3 km/h3,9 km/h265°0,0 mm
05:59-4,6 °C92 %1.004,1 hPa1,8 km/h6,4 km/h234°0,0 mm
05:54-4,6 °C92 %1.004,1 hPa1,9 km/h5,6 km/h252°0,0 mm
05:49-4,6 °C92 %1.004,1 hPa2,4 km/h5,0 km/h251°0,0 mm
05:44-4,6 °C92 %1.004,1 hPa2,0 km/h5,6 km/h283°0,0 mm
05:39-4,6 °C92 %1.004,1 hPa1,9 km/h6,4 km/h270°0,0 mm
05:34-4,7 °C92 %1.004,1 hPa2,3 km/h4,7 km/h259°0,0 mm
05:29-4,7 °C92 %1.004,1 hPa3,4 km/h7,9 km/h250°0,0 mm
05:24-4,7 °C92 %1.004,1 hPa3,0 km/h7,9 km/h230°0,0 mm
05:19-4,7 °C92 %1.004,1 hPa2,4 km/h6,4 km/h252°0,0 mm
05:14-4,7 °C92 %1.003,1 hPa2,9 km/h6,4 km/h242°0,0 mm
05:09-4,7 °C92 %1.003,1 hPa2,2 km/h6,8 km/h248°0,0 mm
05:04-4,7 °C92 %1.003,1 hPa2,2 km/h7,9 km/h247°0,0 mm
04:59-4,6 °C92 %1.003,1 hPa3,0 km/h5,6 km/h255°0,0 mm
04:54-4,7 °C92 %1.003,1 hPa4,1 km/h10,8 km/h246°0,0 mm
04:49-4,7 °C92 %1.003,1 hPa4,1 km/h9,7 km/h252°0,0 mm
04:44-4,7 °C92 %1.003,1 hPa3,2 km/h8,9 km/h244°0,0 mm
04:39-4,8 °C92 %1.003,1 hPa3,6 km/h8,2 km/h248°0,0 mm
04:34-4,8 °C92 %1.003,1 hPa2,5 km/h9,7 km/h237°0,0 mm
04:29-4,8 °C92 %1.003,1 hPa3,1 km/h6,4 km/h242°0,0 mm
04:24-4,8 °C92 %1.003,1 hPa1,7 km/h5,6 km/h248°0,0 mm
04:19-4,9 °C92 %1.003,1 hPa1,8 km/h5,3 km/h237°0,0 mm
04:14-4,9 °C92 %1.003,1 hPa2,0 km/h3,9 km/h243°0,0 mm
04:09-4,8 °C92 %1.003,1 hPa1,6 km/h4,7 km/h250°0,0 mm
04:04-4,7 °C92 %1.003,1 hPa1,9 km/h6,4 km/h245°0,0 mm
03:59-4,7 °C92 %1.003,1 hPa2,7 km/h5,6 km/h226°0,0 mm
03:54-4,7 °C92 %1.003,1 hPa2,8 km/h7,1 km/h235°0,0 mm
03:49-4,7 °C92 %1.003,1 hPa2,1 km/h8,5 km/h243°0,0 mm
03:44-4,7 °C92 %1.003,1 hPa1,9 km/h3,5 km/h245°0,0 mm
03:39-4,7 °C92 %1.003,1 hPa3,2 km/h7,9 km/h244°0,0 mm
03:34-4,7 °C92 %1.003,1 hPa2,7 km/h8,5 km/h229°0,0 mm
03:29-4,6 °C92 %1.003,1 hPa1,4 km/h3,5 km/h269°0,0 mm
03:24-4,6 °C92 %1.003,1 hPa2,2 km/h5,3 km/h240°0,0 mm
03:19-4,7 °C92 %1.003,1 hPa2,3 km/h5,3 km/h242°0,0 mm
03:14-4,7 °C92 %1.003,1 hPa1,4 km/h3,2 km/h228°0,0 mm
03:09-4,7 °C92 %1.003,1 hPa1,4 km/h3,9 km/h252°0,0 mm
03:04-4,6 °C92 %1.003,1 hPa1,6 km/h3,5 km/h261°0,0 mm
02:59-4,5 °C92 %1.002,0 hPa1,2 km/h3,5 km/h233°0,0 mm
02:54-4,5 °C92 %1.002,0 hPa1,8 km/h5,6 km/h246°0,0 mm
02:49-4,4 °C92 %1.002,0 hPa0,9 km/h5,3 km/h249°0,0 mm
02:44-4,3 °C92 %1.002,0 hPa1,1 km/h3,9 km/h252°0,0 mm
02:39-4,2 °C92 %1.002,0 hPa1,8 km/h4,7 km/h246°0,0 mm
02:34-4,2 °C92 %1.002,0 hPa1,8 km/h5,3 km/h260°0,0 mm
02:29-4,1 °C92 %1.002,0 hPa1,9 km/h4,2 km/h243°0,0 mm
02:24-4,0 °C92 %1.002,0 hPa1,9 km/h7,9 km/h245°0,0 mm
02:19-3,9 °C92 %1.002,0 hPa1,9 km/h3,9 km/h229°0,0 mm
02:14-3,8 °C92 %1.002,0 hPa0,7 km/h3,2 km/h250°0,0 mm
02:09-3,8 °C93 %1.002,0 hPa2,0 km/h8,2 km/h279°0,0 mm
02:04-3,8 °C93 %1.002,0 hPa1,4 km/h5,3 km/h270°0,0 mm
01:59-3,8 °C93 %1.002,0 hPa1,5 km/h3,2 km/h280°0,0 mm
01:54-3,7 °C93 %1.002,0 hPa1,3 km/h3,2 km/h281°0,0 mm
01:49-3,7 °C93 %1.002,0 hPa1,1 km/h2,7 km/h301°0,0 mm
01:44-3,7 °C93 %1.002,0 hPa1,9 km/h4,2 km/h268°0,0 mm
01:39-3,7 °C93 %1.002,0 hPa1,5 km/h3,5 km/h294°0,0 mm
01:34-3,7 °C92 %1.002,0 hPa2,2 km/h5,3 km/h288°0,0 mm
01:29-3,6 °C92 %1.001,0 hPa1,6 km/h3,5 km/h265°0,0 mm
01:24-3,6 °C92 %1.001,0 hPa1,3 km/h3,2 km/h281°0,0 mm
01:19-3,6 °C93 %1.001,0 hPa2,0 km/h6,1 km/h263°0,0 mm
01:14-3,5 °C92 %1.001,0 hPa0,8 km/h2,7 km/h273°0,0 mm
01:09-3,5 °C92 %1.001,0 hPa1,5 km/h3,5 km/h287°0,0 mm
01:04-3,5 °C92 %1.001,0 hPa2,4 km/h4,7 km/h280°0,0 mm
00:59-3,6 °C92 %1.001,0 hPa2,2 km/h6,4 km/h282°0,0 mm
00:54-3,6 °C92 %1.001,0 hPa2,5 km/h6,1 km/h283°0,0 mm
00:49-3,6 °C92 %1.001,0 hPa1,9 km/h5,6 km/h300°0,0 mm
00:44-3,5 °C92 %1.001,0 hPa1,8 km/h3,9 km/h310°0,0 mm
00:39-3,5 °C92 %1.001,0 hPa1,2 km/h4,2 km/h275°0,0 mm
00:34-3,4 °C92 %1.001,0 hPa1,5 km/h2,7 km/h277°0,0 mm
00:29-3,4 °C93 %1.001,0 hPa1,7 km/h3,5 km/h298°0,0 mm
00:24-3,3 °C93 %1.001,0 hPa2,3 km/h4,7 km/h275°0,0 mm
00:19-3,3 °C93 %1.001,0 hPa2,3 km/h3,9 km/h291°0,0 mm
00:14-3,2 °C93 %1.001,0 hPa1,3 km/h2,7 km/h310°0,0 mm
00:09-3,1 °C93 %1.001,0 hPa0,6 km/h3,2 km/h305°0,0 mm
00:04-3,0 °C93 %1.001,0 hPa1,2 km/h3,9 km/h293°0,0 mm